[[{"header":{"parameterUnit":"m.s-1","parameterCategory":1,"la1":30.2991,"la2":30.254,"lo1":-89.0895,"lo2":-89.0444,"dy":0.0017,"dx":0.0017,"nx":28,"ny":28,"refTime":"2023-07-19T21:00:00:Z","depth":0,"parameterNumber":2,"parameterNumberName":"U-component_of_WINDS"},"data":[0,0,0,0,0,0,0,0,0,0,0,0,0,0,0,0,0,0,0,0,0,0,0,0,0,0,0,0,0,0,0,0,0,0,0,0,0,0,0,0,0,0,0,0,0,0,0,0,0,0,0,0,0,0,0,0,0,0,0.3422,0.3422,0,0.3479,0.348,0.3481,0.3461,0.3459,0.3458,0.3457,0.3522,0.3525,0.3528,0,0,0,0,0,0,0,0,0,0,0,0,0,0.3301,0.3303,0.3422,0.3423,0.3423,0.3479,0.348,0.3481,0.3461,0.3459,0.3458,0.3456,0.3521,0.3525,0.3528,0,0,0,0,0,0,0,0,0,0,0,0,0,0.3356,0.3304,0.3422,0.342,0.342,0.3479,0.348,0.3481,0.3461,0.3459,0.3457,0.3456,0.352,0.3525,0.3529,0.3595,0,0,0.3542,0.3544,0,0,0,0,0,0,0,0,0.3352,0.336,0.3419,0.342,0.3421,0.3461,0.3461,0.3519,0.3462,0.3446,0.3457,0.3455,0.3504,0.351,0.3525,0.3598,0.3601,0.3543,0.3546,0.3547,0.3549,0,0,0,0,0,0,0,0.3349,0.3357,0.3445,0.342,0.3421,0.3418,0.3424,0.3472,0.3485,0.3447,0.3446,0.3453,0.3504,0.3521,0.3526,0.3602,0.3543,0.3547,0.3549,0.3551,0.3732,0.3734,0,0,0,0,0,0,0.3344,0.3354,0.3443,0.3446,0.3381,0.3422,0.3428,0.345,0.3485,0.3488,0.3454,0.3451,0.3514,0.3521,0.3528,0.3608,0.3547,0.3552,0.3554,0.373,0.3733,0.3735,0,0,0,0,0,0,0.3341,0.3352,0.3441,0.34,0.3411,0.3426,0.3451,0.3452,0.3469,0.349,0.3493,0.3468,0.3513,0.3522,0.3578,0.361,0.3554,0.3558,0.3728,0.3731,0.3734,0.3768,0,0,0,0,0,0,0.3338,0.3351,0.3375,0.3401,0.3413,0.3488,0.3453,0.3455,0.3476,0.3472,0.3504,0.3507,0.3512,0.3572,0.3583,0.3615,0.3561,0.3725,0.3729,0.3733,0.3764,0.3772,0.3779,0,0,0,0,0,0.3334,0.3384,0.3376,0.3387,0.3443,0.349,0.3497,0.3499,0.3478,0.3503,0.3517,0.3506,0.3605,0.3577,0.359,0.3624,0.3723,0.3728,0.3733,0.3761,0.3771,0.3779,0,0,0,0,0,0,0.3364,0.3387,0.3379,0.3438,0.3462,0.3486,0.3518,0.3509,0.3541,0.3537,0.3541,0.3548,0.3606,0.362,0.359,0.369,0.3661,0.3668,0.3678,0.3688,0.3695,0.3691,0.3565,0,0,0,0,0,0.3377,0.341,0.343,0.348,0.3492,0.3503,0.3523,0.3523,0.3548,0.3559,0.3576,0.3603,0.364,0.3665,0.37,0.3766,0.3773,0.3796,0.3803,0.3809,0.3816,0.3852,0.3863,0.3751,0.3751,0.3751,0,0,0.3405,0.3422,0.3443,0.3487,0.3505,0.3542,0.3512,0.3552,0.358,0.3566,0.3619,0.3633,0.3663,0.3724,0.3752,0.3739,0.3848,0.3815,0.382,0.3823,0.3859,0.3869,0.3879,0.3755,0.3754,0.3753,0,0,0.3475,0.3491,0.3535,0.3553,0.358,0.3586,0.3597,0.3622,0.363,0.3683,0.3673,0.3708,0.3771,0.3793,0.3812,0.389,0.3882,0.3902,0.394,0.3976,0.3985,0.3993,0.4021,0.4031,0.3908,0.3908,0.3908,0,0.3508,0.3561,0.3559,0.36,0.362,0.3606,0.3652,0.367,0.3708,0.3723,0.3706,0.3785,0.3805,0.3871,0.389,0.3906,0.3919,0.3899,0.3983,0.3991,0.3999,0.4026,0.4037,0.391,0.391,0.391,0.391,0,0.36,0.3637,0.3669,0.3704,0.3727,0.377,0.3777,0.3801,0.3799,0.3808,0.3862,0.3885,0.3924,0.394,0.3939,0.4006,0.3997,0.3982,0.3953,0.4011,0.4037,0.4048,0.3914,0.3913,0.3912,0.3912,0,0,0.3692,0.3724,0.3736,0.3751,0.378,0.3809,0.3852,0.3888,0.391,0.3936,0.3973,0.4027,0.4012,0.4034,0.4036,0.4067,0.4128,0.4048,0.4049,0.4063,0.4205,0.4217,0.4229,0.4122,0.4124,0.4125,0.4202,0,0.3765,0.3838,0.3837,0.3906,0.3941,0.3928,0.3965,0.3988,0.3997,0.4029,0.4041,0.4078,0.4056,0.407,0.41,0.4114,0.4156,0.4108,0.4158,0.416,0.4152,0.4242,0.4255,0.4326,0.4212,0.4214,0.4215,0,0.386,0.3887,0.3959,0.3981,0.3996,0.403,0.4063,0.4093,0.4119,0.4124,0.4148,0.4144,0.4189,0.4158,0.4221,0.4188,0.4209,0.4219,0.4222,0.4227,0.4192,0.4251,0.4349,0.436,0.4231,0.423,0.4229,0,0.3921,0.3976,0.4025,0.4039,0.4067,0.4091,0.4104,0.4127,0.4149,0.4179,0.4193,0.4229,0.4249,0.4277,0.4283,0.4259,0.4347,0.4316,0.4354,0.4354,0.4374,0.4373,0.4478,0.4385,0.4385,0.4385,0.4385,0,0.4004,0.4048,0.4053,0.4084,0.4133,0.4133,0.4183,0.4195,0.4215,0.4249,0.4241,0.4274,0.4279,0.4314,0.4319,0.4371,0.438,0.4387,0.4388,0.4388,0.4387,0.4402,0.4398,0.4388,0.4387,0.4387,0.4386,0,0.4081,0.4086,0.4139,0.416,0.4167,0.4202,0.4222,0.4252,0.4259,0.4303,0.4313,0.4326,0.4366,0.4374,0.4423,0.4426,0.4488,0.4484,0.4479,0.4479,0.4517,0.4513,0.4636,0.4652,0.4548,0.4549,0.455,0,0.4133,0.4167,0.4191,0.4212,0.4226,0.426,0.4281,0.4283,0.4306,0.4337,0.4364,0.4402,0.4433,0.4498,0.4513,0.455,0.4547,0.4587,0.4553,0.4552,0.4549,0.4547,0.4551,0.4595,0.4596,0.4597,0.4597,0,0.4227,0.4227,0.4257,0.4289,0.4314,0.4339,0.4363,0.4382,0.4386,0.4413,0.4453,0.4476,0.4524,0.4563,0.4599,0.4615,0.4608,0.4608,0.4619,0.462,0.4616,0.4619,0.4498,0.4605,0.4605,0.4604,0.4604,0.4603,0.4294,0.4323,0.4344,0.4378,0.4396,0.4418,0.4448,0.4458,0.449,0.4528,0.4527,0.4571,0.4596,0.4644,0.4661,0.4697,0.4684,0.47,0.4704,0.4708,0.4712,0.4609,0.4703,0.4703,0.4703,0.4703,0.4703,0,0.4387,0.44,0.4431,0.4464,0.4491,0.4479,0.4505,0.4529,0.4567,0.459,0.462,0.4665,0.4703,0.472,0.4757,0.4782,0.478,0.4792,0.4791,0.4795,0.472,0.4708,0.4793,0.4793,0.4793,0.4793,0.4793,0.4793,0.4439,0.4488,0.4491,0.4549,0.4562,0.4602,0.4618,0.464,0.4658,0.4708,0.4738,0.4749,0.477,0.4808,0.4843,0.4847,0.4862,0.4876,0.4879,0.4809,0.48,0.4791,0.4779,0.4879,0.4879,0.495,0.4951,0.4951]},{"header":{"parameterUnit":"m.s-1","parameterCategory":1,"la1":30.2991,"la2":30.254,"lo1":-89.0895,"lo2":-89.0444,"dy":0.0017,"dx":0.0017,"nx":28,"ny":28,"refTime":"2023-07-19T21:00:00:Z","depth":0,"parameterNumber":3,"parameterNumberName":"V-component_of_WINDS"},"data":[0,0,0,0,0,0,0,0,0,0,0,0,0,0,0,0,0,0,0,0,0,0,0,0,0,0,0,0,0,0,0,0,0,0,0,0,0,0,0,0,0,0,0,0,0,0,0,0,0,0,0,0,0,0,0,0,0,0,3.1247,3.1247,0,3.1252,3.1252,3.1252,3.127,3.1271,3.1271,3.1271,3.1273,3.1273,3.1273,0,0,0,0,0,0,0,0,0,0,0,0,0,3.1248,3.1248,3.1247,3.1247,3.1247,3.1252,3.1252,3.1252,3.127,3.1271,3.1271,3.1272,3.1273,3.1273,3.1273,0,0,0,0,0,0,0,0,0,0,0,0,0,3.125,3.1248,3.1247,3.1257,3.1257,3.1252,3.1252,3.1252,3.127,3.1271,3.1271,3.1272,3.1274,3.1273,3.1273,3.1257,0,0,3.1271,3.1271,0,0,0,0,0,0,0,0,3.125,3.125,3.1255,3.1256,3.1257,3.1261,3.1253,3.1253,3.127,3.1265,3.1271,3.1272,3.1268,3.1268,3.1268,3.1257,3.1257,3.1271,3.1271,3.127,3.127,0,0,0,0,0,0,0,3.1249,3.1249,3.1249,3.1255,3.1256,3.1259,3.126,3.1253,3.1263,3.1266,3.1267,3.1267,3.1269,3.1268,3.1268,3.1257,3.1271,3.127,3.127,3.127,3.1229,3.1229,0,0,0,0,0,0,3.1248,3.1249,3.1248,3.1249,3.1255,3.1259,3.126,3.1259,3.1263,3.1265,3.1267,3.1268,3.1269,3.1269,3.1268,3.1248,3.127,3.127,3.127,3.123,3.1229,3.1228,0,0,0,0,0,0,3.1248,3.1248,3.1248,3.1249,3.125,3.1258,3.1257,3.1259,3.1258,3.1264,3.1266,3.1265,3.1269,3.1269,3.1259,3.1248,3.127,3.1269,3.1231,3.123,3.1229,3.1208,0,0,0,0,0,0,3.1248,3.1248,3.1243,3.1249,3.1249,3.124,3.1256,3.1258,3.1257,3.1259,3.1262,3.1264,3.127,3.126,3.1258,3.1248,3.1269,3.1232,3.1231,3.1229,3.121,3.1206,3.1203,0,0,0,0,0,3.1248,3.1237,3.1243,3.1243,3.1244,3.124,3.124,3.1248,3.1257,3.1251,3.1254,3.1263,3.125,3.1258,3.1257,3.1246,3.1233,3.1231,3.1229,3.1211,3.1207,3.1203,0,0,0,0,0,0,3.1229,3.1238,3.1245,3.1236,3.1237,3.1243,3.1236,3.1244,3.1242,3.1244,3.1253,3.1253,3.1241,3.1243,3.1253,3.1229,3.1242,3.124,3.1229,3.1225,3.1222,3.1221,3.1268,0,0,0,0,0,3.1224,3.1221,3.1229,3.122,3.122,3.1228,3.1226,3.1233,3.1234,3.1234,3.1237,3.1237,3.1232,3.1229,3.1225,3.121,3.1209,3.1202,3.1199,3.1196,3.1194,3.1183,3.1179,3.1223,3.1223,3.1223,0,0,3.1213,3.1218,3.1215,3.1216,3.1218,3.1212,3.1228,3.1223,3.1218,3.1233,3.1223,3.1225,3.1225,3.1212,3.1206,3.1213,3.1181,3.1194,3.1192,3.1191,3.1181,3.1176,3.1173,3.1222,3.1222,3.1222,0,0,3.1191,3.1195,3.1187,3.1188,3.119,3.1195,3.1193,3.1197,3.1199,3.119,3.12,3.1194,3.1187,3.1186,3.1184,3.1159,3.1166,3.1157,3.114,3.113,3.1126,3.1123,3.1111,3.1108,3.1155,3.1155,3.1155,0,3.1177,3.1171,3.1181,3.1175,3.1173,3.1187,3.1177,3.1177,3.1178,3.1176,3.1184,3.1173,3.1174,3.1159,3.1153,3.1152,3.1148,3.1156,3.1126,3.1123,3.112,3.1109,3.1105,3.1154,3.1154,3.1154,3.1154,0,3.1152,3.1148,3.1141,3.1141,3.1139,3.1131,3.1138,3.1135,3.1141,3.1144,3.1133,3.1134,3.113,3.1127,3.1133,3.1112,3.1116,3.1125,3.1138,3.1115,3.1104,3.1101,3.1152,3.1152,3.1153,3.1153,0,0,3.1118,3.1124,3.1121,3.112,3.1123,3.1119,3.111,3.1106,3.1102,3.1101,3.1093,3.1085,3.1092,3.109,3.1096,3.1087,3.1063,3.1096,3.1096,3.1088,3.1037,3.103,3.1025,3.1068,3.1068,3.1067,3.1037,0,3.1095,3.1082,3.109,3.1075,3.1069,3.1081,3.1073,3.1072,3.1075,3.1069,3.1071,3.1065,3.1077,3.1075,3.1067,3.1068,3.1053,3.107,3.1058,3.1057,3.1056,3.102,3.1012,3.0984,3.1033,3.1032,3.1032,0,3.1067,3.1065,3.105,3.1051,3.1049,3.1042,3.1038,3.1033,3.1032,3.1034,3.1031,3.1038,3.1027,3.104,3.1024,3.1036,3.1031,3.103,3.1029,3.1027,3.1042,3.1015,3.0975,3.097,3.1026,3.1027,3.1027,0,3.1042,3.1035,3.1024,3.1024,3.1026,3.102,3.102,3.102,3.1016,3.1012,3.1009,3.1004,3.1,3.0995,3.0999,3.1009,3.0981,3.0995,3.098,3.098,3.0973,3.0973,3.093,3.0972,3.0972,3.0973,3.0973,0,3.1014,3.1004,3.1013,3.1006,3.0993,3.1002,3.0988,3.099,3.0989,3.0981,3.099,3.0982,3.0989,3.098,3.0983,3.0968,3.0966,3.0966,3.0967,3.0964,3.0964,3.096,3.0962,3.0971,3.0972,3.0972,3.0972,0,3.0983,3.0989,3.0978,3.0981,3.0981,3.0971,3.0972,3.0965,3.0968,3.0957,3.0955,3.0958,3.0949,3.0952,3.0942,3.0944,3.0923,3.0928,3.0924,3.0924,3.0908,3.0909,3.086,3.0852,3.0902,3.0901,3.0901,0,3.0965,3.0957,3.0958,3.0954,3.0954,3.0947,3.0943,3.095,3.0946,3.0942,3.0934,3.0926,3.0919,3.0903,3.0903,3.0895,3.0897,3.0881,3.0896,3.0893,3.0894,3.0894,3.0892,3.0877,3.0876,3.0876,3.0876,0,3.0931,3.0934,3.0929,3.0924,3.0919,3.0915,3.0912,3.0908,3.0914,3.0908,3.0899,3.0894,3.0883,3.0873,3.0865,3.0863,3.0869,3.0871,3.0866,3.0863,3.0861,3.0859,3.0914,3.0872,3.0872,3.0872,3.0873,3.0873,3.0904,3.0897,3.0896,3.0889,3.0888,3.0884,3.0877,3.0878,3.0871,3.0863,3.0867,3.0855,3.0851,3.0841,3.0838,3.0827,3.0833,3.0828,3.0826,3.0824,3.0821,3.0864,3.0826,3.0826,3.0826,3.0826,3.0826,0,3.0869,3.0869,3.0863,3.0858,3.0852,3.086,3.0856,3.0849,3.0839,3.0836,3.0829,3.0816,3.0806,3.0806,3.0795,3.0787,3.0789,3.0784,3.0784,3.0782,3.0817,3.0821,3.0782,3.0782,3.0782,3.0782,3.0782,3.0782,3.085,3.0837,3.0839,3.0824,3.0824,3.0813,3.081,3.0805,3.0802,3.0788,3.078,3.078,3.0776,3.0766,3.0756,3.0756,3.075,3.0743,3.0744,3.0776,3.078,3.0785,3.0788,3.0743,3.0743,3.071,3.071,3.0709]}]]